Location: *
(10.5081°N, 66.9194°W)
Time: 02:15:21
(UTC+00:00)

Hubble Space Telescope - Pass Details

Date: 30 March 2020
Orbit: 536 x 540 km, 28.5° (Epoch: 23 May)

Event Time Altitude Azimuth Distance (km) Brightness Sun altitude
Rises 23:41:34 0° 217° (SW) 2,664 4.7 -16.3°
Reaches altitude 10° 23:44:11 10° 202° (SSW) 1,774 3.6 -16.9°
Enters shadow 23:47:16 22° 153° (SSE) 1,179 2.2 -17.7°
